This demonstration page uses our WeatherBlox Daily Observations layout. Learn more.

40.92945, -100.16068

Hourly Observations for April 17, 2017

Temp ( °F °C ) Dew Point ( °F °C ) Humidity (%) Winds ( mph kmh ) Pressure ( in mb ) Visibility ( mi km ) Precip ( " mm )
12:15 am 00:15 Partly Cloudy 55 12.5 44 6.5 67 67 SSW 14 22 30.09 1019 10 16.0934 0 0
12:35 am 00:35 Mostly Cloudy 54 12.1 44 6.7 70 70 S 12 19 30.09 1019 10 16.0934 0 0
12:55 am 00:55 Partly Cloudy 54 12.1 45 7 71 71 S 16 26 30.06 1018 10 16.0934 0 0
1:15 am 01:15 Mostly Cloudy 54 12.1 45 7.3 73 73 S 8 13 30.06 1018 10 16.0934 0 0
1:35 am 01:35 Cloudy 53 11.9 46 7.6 75 75 SSE 7 11 30.06 1018 10 16.0934 0 0
1:55 am 01:55 Mostly Cloudy 53 11.4 46 7.5 77 77 Calm 30.09 1019 10 16.0934 0 0
2:15 am 02:15 Clear 51 10.7 46 7.5 81 81 NNW 3 6 30.12 1020 10 16.0934 0 0
2:35 am 02:35 Partly Cloudy 51 10.7 45 7.2 79 79 WSW 5 7 30.12 1020 10 16.0934 0 0
2:55 am 02:55 Mostly Cloudy 49 9.5 45 7 85 85 W 6 9 30.12 1020 10 16.0934 0 0
3:15 am 03:15 Cloudy 51 10.7 47 8.1 84 84 Calm 30.15 1021 10 16.0934 0 0
3:35 am 03:35 Partly Cloudy 50 9.8 45 7.2 84 84 SSW 3 6 30.15 1021 10 16.0934 0 0
3:55 am 03:55 Partly Cloudy 49 9.2 45 7.1 87 87 Calm 30.15 1021 10 16.0934 0 0
4:15 am 04:15 Partly Cloudy 47 8.5 44 6.7 89 89 S 3 6 30.15 1021 10 16.0934 0 0
4:35 am 04:35 Mostly Cloudy 48 9.1 45 7.4 89 89 ESE 3 6 30.15 1021 10 16.0934 0 0
4:55 am 04:55 Mostly Cloudy 49 9.6 46 7.8 89 89 Calm 30.15 1021 10 16.0934 0 0
5:15 am 05:15 Clear 46 7.7 42 5.7 87 87 Calm 30.18 1022 10 16.0934 0 0
5:35 am 05:35 Clear 45 7.2 43 5.9 92 92 Calm 30.18 1022 10 16.0934 0 0
5:55 am 05:55 Partly Cloudy 43 6.1 40 4.6 90 90 N 3 6 30.18 1022 10 16.0934 0 0
6:15 am 06:15 Mostly Cloudy 45 7.2 43 6.2 93 93 N 3 6 30.18 1022 10 16.0934 0 0
6:35 am 06:35 Cloudy 47 8.6 46 7.5 93 93 NNE 3 6 30.15 1021 10 16.0934 0 0
6:55 am 06:55 Cloudy 48 8.9 46 7.6 92 92 E 3 6 30.15 1021 10 16.0934 0 0
7:15 am 07:15 Cloudy 49 9.4 47 8.2 92 92 ESE 3 6 30.15 1021 10 16.0934 0 0
7:35 am 07:35 Cloudy 51 10.3 48 8.7 90 90 SSE 5 7 30.15 1021 10 16.0934 0 0
7:55 am 07:55 Cloudy 51 10.5 47 8.6 88 88 SSE 7 11 30.15 1021 10 16.0934 0 0
8:15 am 08:15 Cloudy 52 10.9 47 8.5 85 85 SSE 6 9 30.15 1021 10 16.0934 0 0
8:35 am 08:35 Cloudy 53 11.5 48 8.8 84 84 SSE 7 11 30.12 1020 10 16.0934 0 0
8:55 am 08:55 Cloudy 53 11.8 48 8.9 83 83 SSE 5 7 30.12 1020 10 16.0934 0 0
9:15 am 09:15 Cloudy 54 12.4 48 9.1 80 80 SSE 6 9 30.12 1020 10 16.0934 0 0
9:35 am 09:35 Cloudy 55 12.8 48 9 78 78 S 5 7 30.12 1020 10 16.0934 0 0
9:55 am 09:55 Cloudy 56 13.4 47 8.4 72 72 S 3 6 30.12 1020 10 16.0934 0 0
10:15 am 10:15 Cloudy 57 14.1 47 8.1 67 67 S 6 9 30.12 1020 10 16.0934 0 0
10:35 am 10:35 Cloudy 58 14.7 46 7.8 64 64 SSW 6 9 30.09 1019 10 16.0934 0 0
10:55 am 10:55 Cloudy 60 15.4 47 8.4 63 63 SSW 3 6 30.09 1019 10 16.0934 0 0
11:15 am 11:15 Cloudy 62 16.6 48 8.7 60 60 S 7 11 30.09 1019 10 16.0934 0 0
11:35 am 11:35 Partly Cloudy 64 17.6 49 9.2 58 58 SSW 8 13 30.03 1017 10 16.0934 0 0
11:55 am 11:55 Mostly Cloudy 64 18 49 9.2 57 57 SSW 7 11 30.03 1017 10 16.0934 0 0
12:15 pm 12:15 Mostly Cloudy 65 18.6 50 9.8 57 57 S 8 13 30.03 1017 10 16.0934 0 0
12:35 pm 12:35 Cloudy 67 19.4 50 9.8 54 54 SSE 9 15 30.03 1017 10 16.0934 0 0
12:55 pm 12:55 Cloudy 67 19.6 50 10 54 54 SSE 9 15 30 1016 10 16.0934 0 0
1:15 pm 13:15 Cloudy 67 19.6 49 9.5 52 52 SSE 15 24 30 1016 10 16.0934 0 0
1:35 pm 13:35 Cloudy 67 19.5 48 9.1 51 51 SE 10 17 30 1016 10 16.0934 0 0
1:55 pm 13:55 Cloudy 67 19.7 49 9.3 51 51 SSE 14 22 29.97 1015 10 16.0934 0 0
2:15 pm 14:15 Cloudy 67 19.6 48 8.9 50 50 S 17 28 29.97 1015 10 16.0934 0 0
2:35 pm 14:35 Cloudy 70 21 49 9.3 47 47 S 16 26 29.94 1014 10 16.0934 0 0
2:55 pm 14:55 Cloudy 69 20.3 48 9.1 49 49 SSE 20 31 29.94 1014 10 16.0934 0 0
3:15 pm 15:15 Mostly Cloudy 69 20.7 49 9.3 48 48 SSE 20 31 29.94 1014 10 16.0934 0 0
3:35 pm 15:35 Mostly Cloudy 71 21.4 49 9.7 47 47 SSE 22 35 29.94 1014 10 16.0934 0 0
3:55 pm 15:55 Mostly Cloudy 71 21.5 50 9.9 48 48 SSE 17 28 29.91 1013 10 16.0934 0 0
4:15 pm 16:15 Cloudy 68 20.2 50 9.8 51 51 S 22 35 29.91 1013 10 16.0934 0 0
4:35 pm 16:35 Mostly Cloudy 69 20.7 49 9.7 49 49 SSE 20 31 29.88 1012 10 16.0934 0 0
4:55 pm 16:55 Mostly Cloudy 69 20.8 50 10 50 50 S 21 33 29.91 1013 10 16.0934 0 0
5:15 pm 17:15 Cloudy 68 20.2 49 9.7 51 51 SSE 21 33 29.91 1013 10 16.0934 0 0
5:35 pm 17:35 Cloudy 68 20.2 50 9.9 52 52 SSE 22 35 29.88 1012 10 16.0934 0 0
5:55 pm 17:55 Cloudy 68 19.8 50 9.9 53 53 S 21 33 29.88 1012 10 16.0934 0 0
6:15 pm 18:15 Cloudy 67 19.7 50 9.9 53 53 S 18 30 29.88 1012 10 16.0934 0 0
6:35 pm 18:35 Cloudy 68 20 50 9.8 52 52 SSE 18 30 29.88 1012 10 16.0934 0 0
6:55 pm 18:55 Cloudy 67 19.7 49 9.6 52 52 SSE 20 31 29.88 1012 10 16.0934 0 0
7:15 pm 19:15 Cloudy 67 19.6 50 9.9 54 54 S 17 28 29.88 1012 10 16.0934 0 0
7:35 pm 19:35 Mostly Cloudy 67 19.5 50 10 54 54 S 18 30 29.91 1013 10 16.0934 0 0
7:55 pm 19:55 Mostly Cloudy 66 19.1 51 10.3 57 57 S 17 28 29.88 1012 10 16.0934 0 0
8:15 pm 20:15 Mostly Cloudy 66 19.1 51 10.4 57 57 SSE 15 24 29.88 1012 10 16.0934 0 0
8:35 pm 20:35 Cloudy 66 18.8 51 10.5 59 59 SSE 15 24 29.88 1012 10 16.0934 0 0
8:55 pm 20:55 Cloudy 66 18.7 51 10.8 60 60 SSE 13 20 29.88 1012 10 16.0934 0 0
9:15 pm 21:15 Cloudy 65 18.5 52 11 62 62 SSE 12 19 29.88 1012 10 16.0934 0 0
9:35 pm 21:35 Mostly Cloudy 64 17.9 51 10.8 63 63 SSE 13 20 29.88 1012 10 16.0934 0 0
9:55 pm 21:55 Partly Cloudy 62 16.9 51 10.7 67 67 SSE 10 17 29.88 1012 10 16.0934 0 0
10:15 pm 22:15 Clear 61 15.9 51 10.5 71 71 SSE 8 13 29.88 1012 10 16.0934 0 0
10:35 pm 22:35 Clear 60 15.5 51 10.5 72 72 SSE 9 15 29.91 1013 10 16.0934 0 0
10:55 pm 22:55 Clear 60 15.3 51 10.6 74 74 SSE 9 15 29.91 1013 10 16.0934 0 0
11:15 pm 23:15 Clear 60 15.5 51 10.8 74 74 SSE 13 20 29.91 1013 10 16.0934 0 0
11:35 pm 23:35 Partly Cloudy 61 16.1 52 11.3 73 73 S 15 24 29.88 1012 10 16.0934 0 0
11:55 pm 23:55 Mostly Cloudy 62 16.5 54 12.1 75 75 S 17 28 29.88 1012 10 16.0934 0 0

Powered by AerisWeather